Weather History for KBUF - April, 2013

Change the Weather History Date:

Wednesday, April 3, 2013

  Actual Average Record
Temperature  
Mean Temperature 31 °F 41 °F  
Max Temperature 36 °F 49 °F 84 °F (2010)
Min Temperature 26 °F 32 °F 11 °F (1881)
Degree Days  
Heating Degree Days 34 24  
Month to date heating degree days 98 74  
Since 1 July heating degree days 5404 5779  
Cooling Degree Days 0 0  
Month to date cooling degree days 0 0  
Year to date cooling degree days 0 0  
Moisture  
Dew Point 16 °F    
Average Humidity 57    
Maximum Humidity 75    
Minimum Humidity 38    
Precipitation  
Precipitation T in 0.10 in 1.77 in (1903)
Month to date precipitation 0.01 0.31  
Year to date precipitation 6.62 8.85  
Snow  
Snow T in 0.20 in 6.50 in (1885)
Month to date snowfall 0.3 0.6  
Since 1 July snowfall 58.8 92.3  
Snow Depth 0.00 in    
Sea Level Pressure  
Sea Level Pressure 30.27 in    
Wind  
Wind Speed 12 mph (West)    
Max Wind Speed 20 mph    
Max Gust Speed 26 mph    
Visibility 8 miles    
Events Snow    
T = Trace of Precipitation, MM = Missing Value Source: NWS Daily Summary

Daily Weather History Graph

Daily Weather History Graph

Search for Another Location

Airport or City:

Trip Planner

Search our weather history database for the weather conditions in past years. The results will help you decide how hot, cold, wet, or windy it might be!

Date:

Astronomy

Apr. 03, 2013 Rise Set
Actual Time 6:53 AM EDT 7:43 PM EDT
Civil Twilight 6:24 AM EDT 8:12 PM EDT
Nautical Twilight 5:50 AM EDT 8:46 PM EDT
Astronomical Twilight 5:14 AM EDT 9:22 PM EDT
Moon 2:42 AM EDT (4/3) 12:44 PM EDT (4/3)
Length of Visible Light 13h 48m
Length of Day
12h 50m
Last Quarter, 45% of the Moon is Illuminated
Apr 3
Last Quarter
Apr 10
New
Apr 18
First Quarter
Apr 25
Full
May 2
Last Quarter

Hourly Weather History & Observations

Time (EDT) Temp. Windchill Dew Point Humidity Pressure Visibility Wind Dir Wind Speed Gust Speed Precip Events Conditions
12:54 AM 27.0 °F 19.5 °F 17.1 °F 66% 30.15 in 10.0 mi West 6.9 mph - N/A   Scattered Clouds
1:54 AM 28.0 °F 18.1 °F 18.0 °F 66% 30.16 in 10.0 mi West 11.5 mph 17.3 mph 0.00 in   Scattered Clouds
2:54 AM 26.1 °F 16.8 °F 18.0 °F 71% 30.15 in 10.0 mi West 9.2 mph - N/A   Scattered Clouds
3:54 AM 26.1 °F 16.8 °F 18.0 °F 71% 30.16 in 10.0 mi West 9.2 mph - N/A   Partly Cloudy
4:54 AM 27.0 °F 16.1 °F 17.1 °F 66% 30.17 in 10.0 mi West 12.7 mph - 0.00 in Snow Light Snow
5:54 AM 27.0 °F 16.7 °F 16.0 °F 63% 30.19 in 9.0 mi West 11.5 mph - 0.00 in   Mostly Cloudy
6:54 AM 26.1 °F 16.8 °F 16.0 °F 66% 30.21 in 9.0 mi West 9.2 mph - 0.00 in Snow Light Snow
7:54 AM 26.1 °F 16.2 °F 16.0 °F 66% 30.23 in 9.0 mi WSW 10.4 mph - 0.00 in Snow Light Snow
8:42 AM 26.6 °F 16.2 °F 17.6 °F 69% 30.21 in 2.0 mi West 11.5 mph - 0.00 in Snow Light Snow
8:49 AM 26.6 °F 17.5 °F 17.6 °F 69% 30.21 in 1.5 mi West 9.2 mph - 0.00 in Snow Light Snow
8:54 AM 26.1 °F 16.8 °F 19.0 °F 75% 30.24 in 2.0 mi West 9.2 mph - 0.00 in Snow Light Snow
9:00 AM 26.6 °F 16.8 °F 17.6 °F 69% 30.21 in 6.0 mi West 10.4 mph - 0.00 in Snow Light Snow
9:54 AM 28.0 °F 18.1 °F 17.1 °F 63% 30.24 in 10.0 mi West 11.5 mph 19.6 mph 0.00 in Snow Light Snow
10:54 AM 30.0 °F 19.1 °F 17.1 °F 59% 30.26 in 4.0 mi West 15.0 mph - 0.00 in Snow Light Snow
11:16 AM 28.4 °F 17.5 °F 17.6 °F 64% 30.24 in 1.5 mi West 13.8 mph - 0.00 in Snow Light Snow
11:18 AM 28.4 °F 17.5 °F 17.6 °F 64% 30.24 in 3.0 mi WNW 13.8 mph - 0.00 in Snow Light Snow
11:54 AM 30.0 °F 19.5 °F 16.0 °F 56% 30.28 in 10.0 mi West 13.8 mph - 0.00 in Snow Light Snow
12:54 PM 30.0 °F 19.1 °F 18.0 °F 61% 30.29 in 9.0 mi West 15.0 mph 18.4 mph 0.00 in Snow Light Snow
1:45 PM 33.8 °F 23.9 °F 19.4 °F 56% 30.27 in 10.0 mi West 15.0 mph 21.9 mph 0.00 in   Mostly Cloudy
1:54 PM 33.1 °F 22.6 °F 18.0 °F 54% 30.30 in 10.0 mi WNW 16.1 mph 23.0 mph 0.00 in   Mostly Cloudy
2:54 PM 30.9 °F 20.7 °F 21.0 °F 67% 30.31 in 10.0 mi SW 13.8 mph 19.6 mph 0.00 in   Mostly Cloudy
3:54 PM 34.0 °F 25.0 °F 12.9 °F 42% 30.32 in 10.0 mi WNW 12.7 mph 18.4 mph 0.00 in   Mostly Cloudy
4:54 PM 36.0 °F 25.6 °F 12.0 °F 37% 30.31 in 10.0 mi West 18.4 mph 24.2 mph N/A   Partly Cloudy
5:54 PM 35.1 °F 25.5 °F 12.0 °F 39% 30.32 in 10.0 mi WNW 15.0 mph 23.0 mph N/A   Partly Cloudy
6:54 PM 34.0 °F 25.5 °F 12.0 °F 40% 30.35 in 10.0 mi NW 11.5 mph 21.9 mph N/A   Partly Cloudy
7:54 PM 32.0 °F 23.6 °F 14.0 °F 48% 30.38 in 10.0 mi WNW 10.4 mph - N/A   Partly Cloudy
8:54 PM 30.9 °F 20.2 °F 14.0 °F 50% 30.41 in 10.0 mi West 15.0 mph - N/A   Partly Cloudy
9:54 PM 30.0 °F 21.7 °F 15.1 °F 54% 30.42 in 10.0 mi West 9.2 mph - N/A   Partly Cloudy
10:54 PM 28.9 °F 21.1 °F 15.1 °F 56% 30.40 in 10.0 mi WSW 8.1 mph - N/A   Clear
11:54 PM 28.0 °F 20.8 °F 16.0 °F 61% 30.38 in 10.0 mi WSW 6.9 mph - N/A   Clear